RH
12 15 15 16 18 21 23 24 23 23 22 21 20 19 19 18 17 17 17 17 17 17 17 17 16 16 18 23 25 24 15 3 1 0 3 5 4 5 8 12 14 14 13 14 18 20 26 31 35 41 43 40 36 38 47 62 64 69 83 79 76 65 55 58 52 51 51 47 50 55 58 55 55 57 55 54 49 44 43 45 47 48 48 50 57 65 71 75
8 11 13 15 17 19 21 22 22 23 22 21 19 19 19 17 17 17 17 17 16 17 16 15 15 15 16 21 24 23 17 7 5 5 4 6 4 5 8 12 13 12 12 15 17 20 28 31 36 38 38 34 30 38 45 57 61 64 85 83 71 63 53 57 55 52 53 52 53 55 57 55 57 57 54 54 49 44 42 43 47 50 53 59 65 69 72 75
8 8 8 10 14 16 18 19 20 21 20 20 19 18 17 17 16 16 17 16 16 16 15 15 14 14 15 20 24 22 19 14 14 14 8 6 5 5 8 12 12 10 12 16 15 19 27 31 37 37 34 29 24 33 39 47 52 55 80 85 70 59 49 51 52 52 56 57 55 53 55 56 59 59 54 53 46 41 39 39 43 48 55 60 64 68 70 72
11 9 7 7 9 11 14 16 17 17 17 17 17 16 16 16 16 15 16 15 16 15 15 15 14 15 14 17 23 21 20 20 20 20 15 9 6 5 8 12 14 13 12 14 12 18 28 32 37 35 30 24 19 25 27 34 45 46 62 73 61 49 47 51 50 52 57 59 58 53 53 55 60 62 58 51 44 41 39 37 39 44 53 58 61 65 67 69
16 14 12 8 7 6 8 12 14 15 15 15 15 15 15 15 15 14 15 15 15 14 14 15 14 14 13 14 19 19 19 19 19 22 21 14 11 9 10 13 15 14 13 11 11 19 31 34 35 32 26 19 14 19 19 25 40 43 47 56 57 49 47 53 56 58 60 61 58 51 53 59 62 61 59 51 44 45 43 41 39 43 52 56 59 61 64 65
18 17 15 13 10 6 5 6 9 13 14 14 14 14 14 14 15 14 14 15 14 14 14 14 14 14 14 13 15 18 18 16 18 22 23 19 17 14 13 16 17 15 15 12 15 25 32 33 30 26 21 15 11 12 14 22 34 43 48 49 57 60 52 54 60 61 62 60 57 56 58 62 61 59 60 55 50 50 49 46 42 44 50 54 58 59 60 61
18 17 16 15 13 10 7 5 4 7 11 14 14 13 14 14 14 14 13 14 14 14 13 13 14 14 14 14 15 17 15 15 19 21 22 21 21 18 15 17 17 18 17 12 14 24 29 28 26 22 16 11 9 9 13 23 27 33 43 48 57 62 58 57 60 62 64 65 66 66 61 60 62 63 62 57 53 52 50 49 46 48 50 53 57 56 57 58
22 19 16 15 14 12 10 7 5 4 7 11 13 13 13 14 14 13 13 13 13 14 13 13 14 14 14 14 16 16 13 15 19 19 20 19 21 20 17 14 14 17 18 12 9 18 25 24 21 17 12 9 8 9 14 23 26 26 32 44 55 59 64 66 63 64 65 68 72 67 60 62 67 67 63 57 52 51 50 49 50 52 51 52 54 54 55 56
25 23 20 16 14 13 12 9 6 4 5 8 12 12 13 13 13 13 13 13 13 14 14 13 13 14 14 14 17 16 13 16 17 19 19 18 19 18 17 15 12 14 17 11 7 16 22 20 16 12 10 9 7 8 14 22 28 29 27 34 50 61 71 75 71 69 66 68 72 66 61 63 68 67 62 58 52 49 50 51 54 55 53 52 52 54 55 56
26 24 23 20 15 13 12 11 7 5 6 8 11 12 12 13 12 13 14 15 16 15 14 14 13 14 14 16 18 15 15 16 16 19 18 14 13 12 14 14 11 13 14 8 10 19 20 16 13 12 11 8 7 8 14 23 28 32 32 33 48 63 71 74 73 73 70 70 71 65 61 61 67 63 55 58 52 46 51 52 55 57 55 52 51 54 55 56
25 24 23 22 18 14 12 11 8 5 6 9 12 12 12 12 13 15 16 17 18 17 16 14 13 14 14 17 18 15 16 16 16 18 15 9 6 6 8 9 9 12 10 7 16 22 17 14 12 12 10 7 8 8 16 32 34 36 38 38 49 61 68 68 67 71 69 69 71 65 60 61 64 57 51 56 50 46 52 51 57 64 62 59 53 54 56 55
25 25 24 22 19 15 12 10 8 5 6 10 12 11 12 13 15 17 17 17 18 18 16 13 13 14 16 20 20 16 17 19 18 16 14 12 7 5 6 7 9 10 8 10 19 21 16 15 14 11 9 8 8 9 27 42 39 40 40 42 52 58 65 66 63 66 64 67 70 63 58 59 61 58 57 57 49 47 52 53 61 65 66 69 63 58 57 55
24 24 24 22 19 16 12 10 8 5 7 11 11 11 13 15 17 16 15 16 17 19 16 13 14 14 19 22 19 16 19 21 19 14 14 17 12 6 6 6 7 10 13 16 18 18 17 15 14 12 9 8 7 13 34 42 40 41 36 38 48 56 65 68 66 65 62 69 72 62 55 53 56 60 62 60 52 48 56 63 65 66 71 76 71 64 59 57
24 23 22 21 19 15 12 10 8 5 7 11 11 12 15 16 16 14 13 14 17 20 17 15 15 18 23 21 16 17 20 20 17 14 15 17 16 13 10 9 10 14 17 18 17 16 15 13 13 12 9 8 7 13 27 34 37 36 35 33 31 50 66 61 63 63 61 71 71 62 55 50 53 60 63 65 58 49 57 70 70 69 70 65 65 68 63 58
24 22 20 20 18 15 12 9 7 5 8 11 11 13 15 15 15 14 13 14 18 19 16 17 17 21 25 19 16 17 16 16 15 15 16 17 18 17 16 15 15 16 16 16 16 15 13 12 12 10 8 7 6 10 19 27 27 28 46 44 22 38 60 57 61 57 56 67 65 60 55 49 54 61 65 69 65 54 52 65 77 74 64 57 62 69 65 56
24 22 20 19 18 15 12 9 8 5 8 11 11 14 14 14 14 13 13 14 17 18 17 19 17 22 24 17 17 17 15 17 15 15 16 17 18 17 18 18 17 16 15 15 14 13 13 11 11 9 8 7 7 10 16 23 22 21 36 37 20 25 38 49 62 57 54 62 60 61 55 47 53 59 68 70 68 63 51 59 82 80 68 67 68 68 63 54
22 22 20 19 18 16 12 9 8 5 7 11 11 14 14 14 13 12 14 14 16 17 17 18 18 22 21 16 17 16 15 17 15 14 15 16 18 18 18 17 16 16 15 15 13 12 12 9 9 9 8 7 7 10 17 22 22 20 20 21 21 21 20 34 54 58 57 56 55 57 50 45 47 51 64 69 66 66 54 56 78 79 67 69 70 68 64 56
19 20 20 19 18 17 13 10 8 5 8 11 12 14 13 13 12 12 14 15 17 17 17 20 22 21 18 15 16 14 14 15 13 14 15 15 16 18 18 14 13 15 14 13 12 11 10 8 7 7 7 8 8 10 17 20 16 16 17 18 19 19 19 22 34 47 51 51 51 51 47 45 47 46 54 64 64 63 56 56 71 74 64 66 69 65 62 59
15 17 19 19 18 17 14 11 8 6 9 13 13 13 13 13 13 14 14 14 19 20 19 24 23 17 13 13 14 13 15 14 12 14 14 14 15 16 17 15 12 12 11 9 9 9 8 7 7 8 8 8 9 9 13 13 10 11 12 14 14 15 19 18 25 35 40 45 46 47 52 48 48 48 49 59 63 60 60 58 64 70 66 64 66 61 59 59
10 11 15 18 18 17 15 12 8 6 10 14 14 14 15 14 13 16 17 17 20 18 15 18 17 13 12 13 13 14 14 13 12 14 15 13 14 16 15 14 11 9 8 6 7 7 7 7 7 8 8 7 8 8 9 8 9 10 9 11 12 12 16 22 35 43 42 45 46 49 53 47 47 51 50 56 59 58 60 59 59 65 66 65 63 60 60 61
7 7 10 15 18 17 15 13 9 5 11 15 14 14 16 14 12 14 17 16 16 15 12 14 14 13 13 13 14 14 13 12 12 13 14 13 14 14 12 11 9 8 7 6 6 6 6 6 6 6 6 6 6 6 7 7 8 9 9 10 10 12 22 34 46 54 53 52 53 51 48 47 50 52 54 56 54 55 58 59 59 60 63 65 63 60 63 66
5 5 7 10 16 18 15 13 10 5 10 15 14 15 15 14 14 14 15 13 11 13 13 13 13 12 13 12 13 14 13 11 10 12 12 12 13 11 9 9 8 7 7 6 6 6 6 5 3 4 4 4 5 5 6 6 8 9 9 10 11 13 26 45 54 56 56 54 52 46 41 48 55 54 56 57 53 57 65 68 67 63 61 61 60 62 68 71
4 4 5 6 12 18 17 13 10 7 9 13 15 17 15 15 14 14 15 15 12 13 13 14 14 12 13 12 11 13 13 9 8 10 11 11 11 10 9 8 7 8 7 7 7 6 6 5 3 3 4 4 4 5 5 6 8 9 9 9 11 10 15 34 50 55 56 52 47 42 37 44 53 55 55 59 63 65 69 72 72 71 68 64 60 62 69 70
4 3 4 4 7 14 18 13 10 9 8 10 14 16 15 15 14 13 16 14 11 13 14 14 14 13 13 12 11 12 12 10 8 9 11 11 10 9 8 8 8 8 7 7 8 7 7 6 5 4 4 5 4 5 5 7 9 8 9 8 9 9 8 20 40 53 56 51 48 42 33 37 49 54 52 57 67 67 63 65 66 68 71 72 68 65 68 68
4 3 3 3 4 10 17 14 10 10 9 9 12 15 15 15 14 14 16 14 12 14 15 14 14 13 13 11 12 12 11 10 9 9 10 10 9 8 8 8 8 8 8 8 8 8 7 7 7 6 5 6 5 5 5 8 10 6 7 8 7 8 9 19 36 42 36 36 46 40 28 34 45 49 49 51 57 58 58 60 59 61 66 71 72 68 68 69
6 4 3 3 3 6 14 16 15 12 10 10 12 13 14 14 13 14 17 15 13 14 13 12 12 12 12 12 13 13 11 9 9 11 11 10 9 9 8 8 8 8 8 9 8 8 7 7 7 7 7 7 5 6 7 8 9 7 7 7 6 7 9 18 31 30 16 23 44 39 24 30 41 48 49 50 53 53 54 56 57 60 65 67 69 70 70 71
7 6 3 3 2 4 10 16 18 14 12 12 11 10 12 12 11 15 19 17 14 13 11 10 10 10 11 12 14 12 9 9 10 11 12 11 10 10 9 8 8 9 8 9 9 8 7 7 8 7 7 7 7 8 7 7 7 8 8 5 5 7 8 13 19 19 13 20 36 34 24 21 33 50 52 50 53 52 51 52 56 62 65 66 66 69 72 72
9 7 4 3 3 3 5 12 17 15 13 12 9 9 10 10 12 16 19 19 15 13 11 9 9 10 10 11 13 10 8 9 9 11 12 11 11 10 9 7 7 8 8 9 10 8 7 7 7 7 7 7 7 6 6 6 6 10 11 8 8 9 10 12 13 14 15 19 23 25 24 16 23 46 52 50 50 50 52 50 53 61 65 68 67 66 71 71
10 9 7 3 2 3 4 9 16 15 12 10 9 10 9 10 14 16 17 18 15 11 10 9 9 8 9 10 11 10 8 8 8 11 12 10 11 10 8 8 7 7 8 8 9 7 7 8 7 7 7 5 6 5 5 5 7 12 13 11 11 11 11 12 12 13 16 18 17 17 19 14 21 36 40 46 49 46 49 49 51 60 65 70 68 66 69 69
11 10 9 5 3 4 4 7 13 13 11 10 8 9 10 13 15 15 15 17 14 11 9 9 9 8 8 8 9 9 8 8 8 10 11 10 10 10 9 9 8 7 8 8 8 7 7 10 10 8 7 6 6 6 6 8 10 12 12 10 11 11 11 12 12 14 17 18 17 16 16 13 20 29 30 41 48 43 45 48 51 58 63 69 69 65 66 65
12 12 10 6 3 4 5 9 12 11 11 10 8 10 13 13 13 14 15 14 13 11 8 8 8 7 7 7 7 8 7 7 8 8 9 9 9 9 9 9 9 8 8 8 7 7 7 9 10 8 8 7 6 6 7 10 11 10 9 9 11 13 14 14 15 17 18 19 17 16 16 13 18 27 30 40 48 44 47 50 51 55 60 67 69 65 66 65
13 13 11 6 4 4 6 9 9 9 10 11 10 11 12 12 12 11 11 11 13 12 9 8 7 6 7 7 6 7 7 7 7 7 7 7 7 8 8 8 8 9 9 8 7 6 6 7 7 8 10 8 6 7 7 9 10 8 8 9 11 14 16 16 17 18 16 17 17 16 17 16 24 36 38 43 47 47 52 53 50 54 59 66 69 66 66 67
13 14 11 6 4 5 6 6 6 7 9 10 12 11 9 12 14 11 6 7 12 12 9 9 8 6 7 7 6 6 6 7 7 7 7 6 7 7 7 7 7 8 9 8 7 7 7 7 7 7 9 8 7 6 7 8 9 7 7 8 11 14 17 18 17 15 15 15 15 17 19 19 29 44 46 45 48 50 56 56 54 57 61 65 68 66 64 67
13 14 10 5 6 8 8 9 8 5 7 12 13 10 10 12 13 11 8 5 9 11 10 9 8 7 8 7 6 6 6 7 6 6 7 7 7 7 7 8 7 7 8 8 8 7 9 10 8 7 7 8 7 7 7 7 7 7 6 7 10 11 14 17 16 15 17 17 18 24 25 21 31 48 48 46 50 54 59 61 59 61 63 63 62 63 64 66
14 10 8 8 12 14 14 17 15 7 8 13 11 8 11 12 9 8 9 7 8 9 8 8 8 8 8 7 6 6 6 6 5 6 7 7 7 6 6 7 7 7 7 8 9 8 9 10 8 8 8 7 7 7 7 7 8 8 7 7 10 10 11 15 15 16 16 16 21 25 23 26 39 49 46 44 48 50 55 59 59 60 61 59 56 58 61 64
12 8 13 18 19 19 17 21 21 10 10 14 10 8 10 9 6 6 9 10 9 9 8 8 8 9 8 7 7 7 6 6 6 6 6 6 6 6 6 6 6 7 6 8 9 9 10 10 8 9 9 7 8 9 8 8 10 10 9 10 11 10 10 15 18 19 17 18 22 20 19 30 42 44 43 44 47 46 48 52 54 57 60 58 54 56 61 64
11 9 21 25 21 20 17 21 22 12 13 14 10 9 8 6 6 7 10 11 9 8 8 9 9 9 9 7 7 7 6 6 6 6 6 6 6 6 6 6 6 6 6 6 7 8 10 10 8 8 10 10 10 10 9 9 9 9 10 11 12 12 12 14 19 21 20 20 22 18 17 25 32 39 46 47 46 47 46 48 51 55 57 55 54 60 67 72
9 12 27 27 21 20 18 20 21 13 14 14 11 13 11 7 7 8 10 10 7 8 8 9 9 8 8 8 6 6 6 6 6 6 6 6 7 6 5 6 7 7 6 6 7 8 8 10 9 8 9 11 11 10 10 10 9 9 10 10 11 16 18 17 18 21 21 21 21 18 18 19 20 32 44 45 43 44 44 46 47 49 51 52 56 63 70 75
10 16 30 28 22 22 18 19 21 15 14 14 11 13 11 8 8 9 9 8 6 7 7 8 8 8 8 8 6 6 6 6 6 6 6 7 7 6 5 6 7 8 7 6 7 7 8 10 11 9 9 10 9 9 9 10 10 9 10 9 10 14 17 17 17 17 18 21 20 17 20 21 18 24 33 36 38 40 41 43 43 44 50 55 60 67 69 72
10 16 26 26 23 22 19 18 19 15 13 12 11 11 10 8 7 7 9 9 7 6 6 6 7 8 9 8 7 7 6 6 6 6 6 6 6 7 6 6 6 8 8 7 7 7 8 10 11 9 8 9 10 9 9 10 11 10 10 11 12 13 14 15 16 14 14 18 19 17 18 20 21 25 29 31 35 38 38 41 42 44 52 60 67 73 74 75
13 16 24 27 23 20 21 20 16 13 11 10 10 9 8 9 7 6 9 10 9 8 7 7 7 8 8 8 8 8 8 7 6 6 6 6 6 7 6 6 6 7 8 8 7 7 8 9 9 9 8 9 9 9 10 11 11 11 10 10 12 13 13 16 19 17 14 14 16 17 17 19 23 29 31 29 32 36 37 38 41 46 56 65 71 75 77 80
18 17 22 27 22 17 20 19 13 13 12 11 9 8 10 11 8 7 9 11 10 9 9 9 8 7 7 6 7 7 8 8 7 7 6 5 5 6 6 7 7 6 7 8 7 8 10 9 8 9 8 9 10 10 11 11 11 10 10 10 10 12 12 15 19 19 16 15 15 15 17 21 29 35 34 32 34 39 43 42 43 51 61 67 73 76 78 80
26 21 23 28 25 19 19 17 14 14 12 10 10 9 12 13 11 11 11 11 10 9 10 9 8 8 7 6 6 7 8 9 8 6 6 5 5 6 7 7 7 6 6 7 8 10 12 10 10 11 10 9 10 10 10 11 12 11 10 10 10 11 12 12 13 15 15 16 16 17 18 24 37 46 46 49 49 48 53 54 52 57 62 67 74 79 80 81
35 29 28 32 31 24 20 17 16 14 11 11 12 12 16 17 15 15 14 13 13 12 11 10 9 8 8 7 8 8 9 11 9 7 6 6 7 8 8 7 8 6 5 7 8 9 11 11 12 14 14 13 12 12 12 12 12 10 10 12 11 11 12 12 12 14 15 16 16 17 17 23 39 51 51 53 52 46 51 60 63 64 63 64 71 77 80 83
40 34 31 34 34 29 23 21 20 18 16 17 17 16 18 20 19 19 18 17 16 15 14 13 10 9 9 9 10 9 10 10 10 8 7 7 7 8 9 8 7 6 7 11 9 7 10 12 12 14 15 15 17 17 15 12 11 9 10 14 14 12 12 12 14 15 17 21 20 16 17 22 37 48 46 45 47 45 52 63 68 70 69 68 71 75 80 83
40 32 28 30 32 30 28 30 28 24 23 25 24 20 20 21 21 22 22 20 18 18 17 14 13 12 11 11 11 11 11 10 10 10 8 7 7 8 9 8 9 11 13 13 9 7 11 12 12 15 15 13 16 19 14 10 10 10 11 15 14 12 12 12 14 16 19 22 20 17 19 20 27 36 36 38 43 45 51 60 63 66 71 73 74 77 81 82
41 35 32 33 33 31 30 32 30 26 28 30 28 26 26 23 21 23 22 21 20 20 19 16 15 14 12 12 12 12 11 11 10 10 9 7 7 9 10 9 12 17 16 12 10 10 12 12 12 16 15 11 12 15 11 9 10 9 10 13 13 14 15 13 13 18 19 18 17 20 23 19 19 25 28 30 36 40 46 55 60 65 72 75 76 78 80 79
38 37 43 46 40 33 32 34 34 32 31 32 29 29 29 25 24 24 22 21 21 21 21 20 16 13 12 14 16 15 13 13 12 11 10 9 9 9 9 9 14 19 15 10 11 11 10 11 12 12 12 11 10 11 11 10 11 10 10 11 13 15 15 14 14 17 17 16 19 24 25 20 19 24 29 33 35 39 48 59 66 72 77 78 77 78 78 77
38 36 44 49 41 33 33 36 38 37 32 32 34 31 30 27 25 24 22 23 23 21 22 23 19 16 16 19 22 21 17 17 17 14 11 11 10 9 9 10 13 17 12 8 12 14 13 15 15 11 11 12 10 11 11 11 11 11 10 10 11 13 13 14 13 14 16 17 19 23 24 21 21 27 37 47 51 54 62 69 73 76 78 79 78 78 77 75
50 48 48 47 34 26 29 29 32 36 34 35 38 33 29 27 25 25 26 25 25 23 22 24 23 22 22 23 24 23 21 24 26 23 18 14 11 9 10 10 11 13 11 8 12 15 15 18 18 12 11 13 12 11 11 11 12 13 12 12 11 11 12 13 13 16 20 20 21 24 23 22 30 40 51 64 69 68 71 73 74 77 78 79 79 78 76 72
46 49 53 53 38 28 31 28 28 33 30 31 35 32 30 29 27 29 29 26 26 25 23 25 26 25 24 23 23 23 23 26 28 26 24 20 17 14 12 9 9 12 11 10 12 12 13 19 18 13 13 15 12 11 11 11 11 12 14 14 13 12 13 13 15 18 19 20 25 27 21 23 40 51 59 69 70 64 64 69 73 77 79 80 79 76 73 72
49 58 66 65 48 33 31 29 28 30 27 27 33 33 31 30 29 32 33 28 25 25 26 28 28 27 26 24 25 26 27 28 28 27 26 25 23 20 16 10 8 10 11 11 12 10 11 15 15 12 15 15 12 12 12 12 14 16 16 15 13 12 14 14 15 17 17 17 21 23 22 31 46 48 51 62 63 56 57 64 69 73 76 79 79 73 71 74
Wind_Speed
7 6 5 4 3 3 3 3 4 5 7 7 8 9 10 11 11 11 11 11 10 10 9 10 11 10 10 8 7 7 4 1 1 3 5 5 9 9 6 6 7 9 8 7 7 6 6 6 6 5 4 5 4 2 1 1 0 3 3 2 2 4 5 3 5 4 2 5 7 6 5 5 8 7 6 6 5 7 7 7 7 7 8 11 16 22 24 23
8 7 6 5 5 5 5 5 5 6 6 7 8 9 9 10 10 10 10 10 10 10 10 11 11 11 10 8 7 6 5 5 5 3 2 4 7 8 7 8 9 8 7 7 8 8 7 7 7 6 5 5 2 1 1 2 2 3 2 3 3 3 4 3 5 4 2 4 7 5 4 4 6 6 7 6 7 8 6 8 8 9 12 15 20 22 23 22
9 8 8 7 6 6 6 7 7 7 7 7 8 9 9 9 9 9 9 9 9 9 10 10 11 12 11 8 6 5 7 7 7 6 1 3 5 7 9 9 9 7 7 7 8 9 6 5 6 5 5 5 1 1 2 3 2 5 4 2 2 2 2 3 3 3 3 4 5 5 5 4 4 4 5 5 7 7 4 7 8 10 14 17 21 22 22 22
12 10 9 8 7 7 7 7 8 8 8 8 8 9 9 8 8 8 8 8 8 9 9 9 11 11 12 10 6 5 4 4 5 5 3 3 4 6 9 9 8 6 5 6 7 8 6 5 6 4 6 5 1 2 1 3 1 4 4 1 3 2 1 4 4 1 2 2 3 5 6 5 4 3 3 4 5 5 3 5 6 10 16 20 22 22 22 21
13 12 11 10 9 8 8 8 8 8 8 8 8 8 8 8 7 7 7 7 7 8 9 9 10 10 12 11 7 5 2 3 5 3 1 3 4 5 6 8 7 6 5 5 5 7 7 5 5 5 6 4 2 2 2 5 1 3 5 4 2 4 3 6 5 2 3 1 3 5 5 3 3 3 2 4 2 2 2 2 5 10 16 21 23 22 21 21
14 14 13 12 11 10 9 8 8 8 8 8 8 8 8 7 7 7 6 6 6 7 8 8 10 10 11 11 8 5 5 2 5 2 2 2 2 3 5 6 6 6 5 5 5 7 8 6 6 6 5 3 3 3 4 3 2 2 4 5 3 4 4 4 4 2 3 2 2 3 2 2 3 3 1 3 2 2 2 2 7 11 15 20 22 22 21 21
15 14 14 13 12 11 10 9 8 8 8 8 8 7 7 7 7 6 6 5 5 6 7 8 9 9 10 11 9 3 2 4 4 2 3 2 1 2 4 5 6 6 6 6 8 8 8 6 5 5 5 3 2 4 4 1 3 2 5 5 4 5 6 4 2 2 3 2 2 1 1 1 1 1 1 1 1 1 1 5 8 11 14 18 20 21 21 20
16 15 14 13 13 12 11 10 9 8 8 7 7 7 7 7 7 6 6 5 5 6 6 7 8 8 9 9 8 3 2 4 3 2 2 2 2 3 4 5 6 6 7 8 8 8 8 6 4 4 3 1 3 4 4 1 3 2 7 9 4 2 4 3 1 2 4 3 2 1 2 1 1 2 2 2 1 0 5 10 12 13 14 17 18 19 18 18
16 16 15 14 14 13 12 11 10 9 8 7 7 6 6 6 6 6 6 5 5 6 5 6 6 7 8 8 8 5 3 4 1 2 1 1 2 4 5 6 7 7 8 8 8 8 7 5 2 3 4 2 4 4 4 2 2 0 5 11 7 3 3 2 1 2 3 2 1 2 2 2 1 3 3 2 1 3 10 13 14 15 15 15 15 17 17 17
17 16 16 15 15 14 13 12 11 9 8 7 6 6 6 6 6 6 6 6 5 5 5 5 5 5 7 8 8 4 4 2 2 2 1 1 1 5 7 8 8 9 9 9 9 8 5 2 1 3 4 3 3 3 4 3 1 0 4 9 8 6 6 5 4 4 4 2 2 3 2 1 1 3 3 3 1 5 12 13 14 15 15 14 13 14 15 15
16 16 16 16 15 14 13 12 11 9 8 6 5 5 5 6 6 7 7 7 6 5 4 4 5 5 7 8 8 3 4 1 3 3 1 3 2 4 6 8 10 10 9 9 9 7 3 1 0 3 3 2 3 2 1 3 0 2 6 8 7 7 6 6 5 5 5 2 2 3 4 3 4 4 2 3 3 7 11 13 13 11 11 11 11 12 12 13
16 16 16 16 15 15 14 13 11 9 8 6 5 5 6 6 7 8 8 8 6 5 4 4 4 6 8 7 5 2 2 3 3 4 3 5 4 6 7 8 10 10 8 8 9 6 2 1 2 5 3 5 5 2 2 1 2 4 6 5 6 7 6 6 5 6 6 3 2 3 3 3 4 2 1 2 4 7 11 12 13 13 10 8 9 10 11 12
16 16 16 16 15 15 14 13 10 9 7 6 6 6 6 7 8 8 8 8 7 6 4 4 5 7 9 5 1 1 2 3 4 6 5 6 7 7 9 10 11 11 9 6 6 4 2 0 2 5 5 6 5 2 2 0 3 5 6 4 5 6 4 5 6 6 6 4 4 4 1 3 2 1 2 4 6 8 11 13 13 14 10 6 8 8 9 11
16 16 16 16 15 15 15 13 11 8 6 6 6 5 6 8 8 8 9 8 7 5 3 4 6 7 6 1 2 2 3 4 7 8 6 7 8 8 9 11 12 12 11 7 3 3 2 1 3 6 5 5 4 3 4 3 4 5 3 4 4 2 1 4 6 7 6 5 6 4 0 3 3 2 3 5 7 9 12 17 16 13 9 9 14 11 9 11
16 16 15 15 15 15 14 13 11 8 6 5 5 5 6 8 8 9 10 9 6 4 3 4 6 6 3 2 3 5 7 6 8 8 6 7 7 7 9 9 10 10 9 6 3 3 2 1 4 6 4 4 5 6 5 3 5 4 2 4 2 2 3 5 5 7 4 3 7 5 0 3 3 2 2 5 7 8 9 17 19 16 15 14 16 13 10 11
17 16 15 15 15 14 14 13 11 8 6 5 5 5 7 9 10 11 12 9 7 6 5 6 5 4 4 3 4 5 7 6 7 8 7 8 6 5 7 7 6 6 7 4 4 3 2 3 5 6 5 5 6 6 3 3 4 4 2 2 2 2 2 4 5 6 3 3 6 6 2 1 3 3 4 4 6 7 7 13 22 20 18 13 13 13 11 11
17 16 16 15 14 14 14 13 11 8 5 5 5 5 8 10 11 13 13 9 8 8 9 7 2 3 3 3 4 5 6 6 9 8 7 8 7 6 8 7 5 5 7 4 4 3 3 5 5 5 6 6 4 4 4 5 4 3 2 1 3 3 2 2 4 5 5 4 4 6 4 1 3 3 5 4 5 7 7 9 19 18 16 13 12 12 10 10
17 17 16 15 14 14 13 12 10 7 4 5 5 6 9 10 13 14 9 7 8 9 10 5 5 4 2 6 5 4 6 8 11 9 7 8 9 8 7 5 5 7 8 6 5 6 5 5 5 5 6 6 5 6 5 2 0 1 1 1 1 1 2 2 2 4 6 5 4 5 2 1 1 0 2 4 4 6 6 4 13 15 14 14 13 13 12 10
18 17 16 16 14 14 13 12 10 5 3 4 4 6 8 10 12 8 4 9 9 8 5 4 7 3 2 6 5 3 5 10 12 9 8 9 9 9 7 5 6 8 9 8 7 8 7 5 6 6 6 7 6 6 5 4 5 5 4 4 4 2 2 4 4 1 3 5 3 2 1 2 1 1 1 3 2 4 5 4 8 13 13 13 14 13 12 10
19 17 16 15 14 14 12 12 9 4 3 3 4 6 7 8 7 2 3 12 10 7 5 3 7 5 1 4 5 4 5 10 11 9 10 10 9 9 8 7 8 8 8 5 6 8 7 6 7 8 8 8 5 4 6 6 5 7 6 4 3 3 2 4 3 2 3 4 3 4 2 4 2 1 2 2 2 4 5 5 6 9 12 14 14 13 14 13
20 18 16 14 14 13 12 11 8 3 2 2 3 4 4 5 4 3 7 9 6 6 8 6 8 8 4 5 7 4 5 10 10 10 12 11 9 9 9 9 8 7 6 3 3 5 6 8 9 11 10 6 2 3 6 7 7 7 6 5 3 1 3 3 1 2 3 4 4 4 5 2 1 1 2 1 3 2 2 4 4 6 10 12 14 14 15 15
20 18 16 14 12 12 11 11 7 3 3 2 1 2 2 3 3 5 8 8 7 8 7 7 10 10 7 8 8 6 6 9 10 12 14 12 11 10 8 9 8 4 6 5 4 5 7 9 10 11 8 5 4 4 7 8 9 8 5 5 3 1 4 4 2 3 4 3 2 4 3 3 2 2 3 1 2 1 1 1 2 3 6 10 12 13 14 16
20 18 17 14 12 11 11 10 6 3 3 4 1 1 3 2 4 7 7 8 8 7 6 8 10 9 9 9 9 10 9 9 11 13 15 14 12 10 7 8 6 3 6 8 6 5 5 4 7 9 6 7 8 7 8 8 7 7 5 5 3 1 1 1 3 4 4 1 1 2 2 2 2 1 2 0 3 3 2 1 2 3 5 6 9 11 13 16
21 19 17 15 12 10 10 10 5 3 3 5 5 5 5 4 5 8 7 8 6 4 6 7 8 7 8 7 8 13 10 7 9 12 17 16 12 9 8 7 6 4 6 8 8 8 4 3 1 6 7 8 9 8 10 7 6 7 6 7 4 1 2 2 3 6 4 3 2 2 3 1 2 1 2 3 2 3 2 2 3 4 4 4 6 8 11 14
20 20 18 16 13 10 10 8 4 4 4 4 7 7 6 5 5 7 6 7 5 5 6 7 7 6 8 8 9 11 7 7 8 9 16 18 12 7 5 5 6 4 3 5 7 8 4 3 4 6 7 9 9 9 10 8 6 6 7 7 6 3 2 2 5 5 4 4 3 4 5 1 3 2 1 2 3 3 2 3 5 4 4 4 6 7 8 11
20 20 18 16 14 10 7 3 3 6 5 4 7 8 6 5 5 7 5 5 3 6 7 8 8 7 9 9 11 9 6 8 9 9 14 16 12 6 4 5 5 3 1 2 5 3 1 5 5 7 7 10 9 8 9 8 7 4 3 3 4 3 2 2 4 5 6 1 2 6 5 2 4 3 1 1 1 2 2 3 4 4 4 5 6 6 7 8
20 20 18 16 15 12 5 3 6 8 4 5 8 8 6 5 4 6 4 5 3 4 6 7 6 8 9 9 13 9 3 9 11 10 12 13 12 8 6 5 4 3 2 4 3 2 3 5 6 7 8 9 9 8 9 10 9 0 5 2 3 4 5 3 4 6 4 1 3 5 4 5 2 3 0 1 1 1 1 1 1 2 3 5 5 6 7 7
20 20 19 16 14 13 8 6 7 5 5 7 7 8 6 4 3 4 5 5 2 3 4 5 4 7 8 8 14 9 1 8 8 9 11 12 11 8 8 6 4 1 2 6 1 6 4 5 6 8 9 9 5 3 8 10 8 3 6 0 2 3 4 4 6 5 2 3 4 4 3 6 1 4 3 3 2 1 2 2 4 4 3 1 4 4 5 7
20 20 20 18 15 13 10 7 5 5 6 5 6 7 5 3 2 3 5 4 2 4 4 6 6 7 8 7 12 10 3 5 3 5 11 11 11 8 6 5 6 5 4 7 4 3 3 1 2 5 7 4 5 7 4 7 4 5 4 2 2 2 3 4 6 3 1 6 5 3 3 6 1 4 4 3 2 2 4 3 5 6 6 4 1 2 3 5
20 20 20 19 16 13 10 7 5 4 3 3 6 6 5 4 3 5 5 2 2 3 4 6 6 7 10 9 10 10 9 6 3 7 10 8 10 10 6 4 6 7 5 7 6 2 2 2 2 5 4 4 8 7 3 1 2 5 5 4 4 3 3 3 4 2 4 6 2 2 2 5 2 2 2 2 3 3 3 4 5 6 7 7 3 1 1 3
19 19 19 19 16 13 10 6 5 5 4 4 5 7 6 5 4 6 4 1 1 3 5 6 6 6 10 10 8 9 10 8 7 9 8 6 9 10 7 6 6 6 6 6 7 5 6 6 4 3 1 2 6 5 4 3 5 5 6 4 4 4 3 4 3 3 7 4 2 2 3 6 4 0 2 4 5 4 3 3 4 5 7 7 5 3 1 1
19 18 18 18 16 12 9 7 8 7 6 6 8 10 8 5 5 6 3 2 1 4 3 3 6 6 8 8 7 8 9 8 9 10 8 7 8 8 8 7 4 5 6 5 5 6 7 6 4 5 5 6 6 5 5 5 6 6 6 5 5 4 4 5 4 4 6 1 3 1 3 5 2 3 4 4 5 4 4 4 4 5 7 7 6 5 3 1
19 17 16 16 14 12 10 9 9 9 8 9 10 10 7 6 6 5 4 3 1 2 1 1 4 4 4 6 7 8 7 7 9 10 9 7 7 7 9 7 5 6 4 2 3 5 6 6 7 7 7 7 8 5 4 5 6 7 6 5 5 4 4 5 4 4 3 1 3 1 3 4 2 4 3 3 5 4 5 4 3 5 6 6 6 5 4 3
18 17 15 14 13 10 9 7 7 10 12 12 11 9 8 9 5 1 5 5 1 2 0 1 1 4 6 7 6 7 7 7 9 9 8 8 7 7 8 8 9 8 5 3 4 4 4 4 8 6 5 8 9 6 4 1 5 5 4 5 5 5 5 4 3 3 2 1 3 3 3 3 1 2 2 4 5 3 4 4 3 3 4 4 5 5 5 5
18 15 13 12 11 9 8 6 5 10 15 15 10 8 8 9 5 3 4 2 1 3 3 2 4 6 8 7 6 6 5 5 9 9 8 8 8 8 8 8 11 9 6 5 2 2 6 2 6 3 2 5 6 2 3 3 3 3 2 5 4 3 3 3 3 4 5 3 2 3 2 2 3 3 4 4 5 4 4 4 3 3 3 3 4 5 5 5
17 13 9 9 10 10 9 8 7 11 18 14 9 8 8 7 3 1 0 2 1 3 3 5 6 7 7 7 8 8 4 3 8 8 7 9 8 8 8 5 8 11 8 5 2 3 6 2 8 5 4 4 2 1 3 5 1 3 4 3 2 3 4 3 2 2 4 5 1 1 1 4 4 5 6 6 5 5 4 3 3 3 3 2 3 4 4 4
16 10 6 7 9 9 8 9 9 14 18 12 8 8 6 4 1 1 2 2 2 2 5 6 5 5 7 6 8 11 8 5 7 7 6 8 7 8 10 6 5 10 10 7 4 2 4 1 7 6 5 5 1 2 4 3 4 3 3 2 4 0 4 4 2 3 5 5 1 1 2 1 2 2 5 7 6 6 5 4 3 3 2 3 4 4 4 4
17 9 3 5 5 4 2 6 11 16 15 10 9 8 5 2 1 1 1 2 2 2 5 6 2 2 5 6 7 10 9 7 8 8 7 7 5 7 11 9 6 8 9 9 5 1 3 3 6 5 4 7 5 5 5 4 3 4 1 4 2 2 3 3 3 3 3 3 1 2 1 2 1 1 5 7 6 6 6 5 3 3 3 2 3 4 4 4
16 6 1 4 4 3 3 8 12 14 12 7 9 7 4 4 2 0 1 1 3 4 5 5 2 2 4 5 3 7 9 8 7 7 7 6 5 6 8 7 6 7 8 9 6 2 2 4 3 6 5 5 6 7 6 6 4 2 3 4 3 2 1 1 2 2 3 3 1 1 2 1 3 3 4 6 6 6 6 5 4 3 3 2 3 3 3 4
13 5 1 2 2 3 7 10 10 10 8 6 6 3 2 4 3 2 1 2 3 4 4 3 3 4 4 4 3 3 6 7 6 6 6 6 6 5 7 7 5 7 9 10 6 2 3 4 2 6 6 5 6 5 5 2 3 5 5 5 4 2 1 2 1 2 4 3 1 2 1 4 5 3 2 4 6 6 5 5 4 3 4 3 3 3 4 4
9 4 1 2 1 4 7 7 7 7 6 5 5 3 1 2 3 4 3 3 5 5 4 5 5 5 5 5 4 2 4 6 6 7 5 7 8 6 8 9 8 9 9 8 7 5 3 4 3 4 5 4 2 3 4 6 4 3 4 4 4 3 3 4 3 2 2 3 2 4 3 4 6 2 1 3 5 6 6 6 5 4 3 3 3 2 3 4
7 4 0 1 2 5 5 5 5 4 6 3 2 2 2 2 5 6 5 5 6 6 5 6 7 7 7 7 5 3 4 6 7 7 6 7 10 6 7 10 10 12 10 6 5 3 0 3 5 2 1 1 5 5 2 4 4 5 5 4 3 3 4 5 2 2 2 2 2 4 3 3 6 3 2 3 4 5 5 5 4 4 3 2 2 2 2 3
8 6 4 4 3 6 5 5 4 4 6 2 0 2 3 3 5 5 5 7 7 6 6 6 7 8 7 7 7 6 6 6 7 7 6 7 7 3 7 10 10 11 10 6 5 5 1 3 4 2 0 2 3 3 2 2 4 6 6 5 5 4 4 5 3 1 2 2 2 4 3 3 5 4 4 4 5 6 5 4 3 3 3 1 1 1 2 3
10 7 5 4 2 6 6 5 4 5 5 4 3 6 6 5 6 5 5 7 6 5 6 6 6 8 6 5 6 7 6 5 7 8 6 5 3 5 7 11 10 10 9 4 5 8 5 3 4 4 4 5 5 5 5 5 6 8 6 6 7 5 4 4 2 2 4 3 2 5 3 4 5 4 5 6 6 6 6 4 3 2 2 1 0 1 2 3
9 4 3 2 1 5 5 4 4 4 3 5 6 6 6 6 6 7 7 6 6 6 6 6 6 7 6 5 6 7 7 6 6 6 5 5 3 4 6 11 10 10 6 1 4 9 5 3 4 5 5 4 3 2 2 3 5 7 5 6 8 8 8 6 3 4 5 2 2 6 3 5 7 6 6 6 6 6 6 6 4 3 2 1 0 2 3 3
7 3 2 1 2 4 4 2 4 6 3 4 5 6 7 7 6 7 7 7 6 6 8 8 7 7 7 8 8 9 10 10 8 5 6 6 4 3 5 10 8 5 3 4 7 9 4 3 5 6 6 5 4 3 3 4 5 7 7 8 10 10 9 7 5 4 2 2 4 4 1 2 4 8 6 6 7 6 6 6 5 4 3 1 1 2 3 4
6 3 3 2 1 4 4 2 4 5 2 3 4 3 6 8 5 6 8 6 4 5 8 8 8 9 9 9 9 10 10 11 10 9 9 7 3 4 5 9 7 4 6 7 9 7 3 5 6 6 6 4 4 3 1 5 8 7 7 9 10 9 9 9 7 2 2 2 3 3 4 3 1 4 4 4 5 5 5 6 5 3 2 1 1 3 4 4
4 3 3 4 3 2 2 0 2 3 3 4 4 3 7 9 7 6 6 5 5 5 5 7 9 10 9 6 6 7 9 9 10 11 10 7 4 6 7 8 7 7 8 9 8 6 5 5 6 6 5 1 0 0 1 4 6 6 6 8 9 10 11 11 9 4 3 5 2 5 4 4 2 3 3 2 2 4 4 5 4 2 2 1 2 3 3 4
5 4 3 3 4 5 5 4 4 6 6 5 4 6 8 9 9 7 4 4 6 6 5 7 7 6 7 6 5 7 8 7 8 10 9 8 8 7 8 8 7 9 10 9 7 5 4 2 4 5 5 3 3 2 3 4 5 5 6 5 7 9 11 12 10 7 6 6 1 2 3 5 1 3 5 5 4 4 5 5 4 3 2 2 3 3 3 5
4 5 4 5 7 7 7 6 6 6 5 5 5 6 8 9 9 6 4 6 7 5 5 7 6 5 6 6 7 9 5 4 5 5 5 6 8 8 8 8 8 9 11 9 7 4 4 3 4 5 5 4 4 4 4 6 6 6 6 5 6 8 9 10 9 6 6 7 3 3 6 5 2 6 7 6 5 6 6 5 4 3 3 3 3 3 3 5
5 6 5 6 6 4 5 6 5 5 5 6 6 5 6 8 6 4 5 9 10 7 3 3 6 6 6 5 7 6 4 7 8 8 8 8 6 5 5 7 10 11 10 9 7 6 6 4 5 6 6 4 5 6 6 6 7 8 8 7 8 8 7 8 7 7 8 8 6 6 7 3 5 8 7 6 6 6 6 6 5 4 4 3 3 3 3 5
5 5 5 5 4 3 4 5 4 5 4 3 4 4 5 6 3 4 6 8 9 8 2 5 7 6 5 5 2 4 9 11 12 12 11 11 10 9 8 5 10 13 11 8 7 7 7 5 5 6 6 3 5 6 6 6 7 7 6 6 9 9 7 7 7 8 10 9 6 5 3 3 7 7 6 6 6 7 6 5 5 4 4 4 3 3 4 5
Wind_Direction
8 3 353 336 303 290 298 310 320 330 337 343 347 352 356 0 7 13 15 19 24 29 35 36 35 34 34 33 27 21 23 90 163 198 209 216 212 212 208 194 181 182 182 181 193 190 189 193 198 222 229 240 262 269 281 261 282 49 353 345 62 65 80 38 44 88 164 125 122 140 159 144 136 145 144 146 138 129 125 119 112 88 92 115 128 139 146 149
6 358 348 334 311 295 287 288 296 305 317 326 332 339 346 353 1 8 13 16 20 25 28 27 27 28 30 31 22 26 57 86 86 87 209 216 207 199 192 176 166 173 168 173 191 185 192 198 199 216 233 256 250 244 273 188 205 81 39 4 40 9 36 14 17 58 81 104 114 141 156 141 131 143 164 165 148 148 133 127 129 110 112 124 134 142 146 151
12 1 349 336 322 309 296 290 288 290 300 308 317 325 334 345 354 3 8 12 17 20 21 18 18 22 26 32 22 39 85 100 88 73 82 178 187 188 185 177 171 175 165 171 189 191 206 203 198 215 247 267 270 290 262 175 180 95 92 11 53 306 343 26 351 26 53 91 127 144 146 137 123 141 174 180 161 161 134 130 138 130 133 139 143 147 150 154
17 8 359 346 332 319 309 301 293 291 292 296 305 313 324 335 345 355 0 7 10 12 14 10 11 17 23 32 27 41 106 143 103 78 59 104 157 176 183 187 189 187 171 177 185 191 206 194 195 230 263 269 341 279 290 98 149 108 115 47 31 324 7 41 4 29 85 93 131 144 156 143 125 151 185 197 175 161 142 132 135 142 147 149 152 154 156 159
18 13 8 358 347 333 320 310 304 299 294 293 297 304 314 323 336 346 354 3 360 1 3 0 6 11 17 24 23 17 281 219 101 103 52 81 135 162 179 189 195 196 190 186 175 185 190 183 205 235 262 281 331 267 60 74 137 109 107 126 63 333 4 38 22 84 107 87 139 159 162 126 142 169 178 223 220 88 90 139 136 146 154 157 159 159 161 163
16 14 9 4 358 347 335 322 313 306 302 298 297 300 305 313 326 335 347 354 351 350 351 351 359 4 10 12 14 6 307 342 82 189 217 100 133 160 186 192 196 197 193 184 171 185 183 187 222 242 270 286 328 345 39 71 173 128 107 139 174 263 291 16 40 101 116 118 136 153 144 111 183 170 112 244 267 34 50 160 151 149 156 160 161 163 165 167
17 13 8 5 360 354 346 334 323 312 309 304 303 302 301 310 316 327 338 343 347 342 340 341 348 356 357 358 2 360 332 38 79 182 194 183 205 182 200 203 206 197 186 183 180 191 191 200 234 269 285 275 345 359 7 44 190 166 133 155 201 230 266 318 22 117 127 118 87 70 189 199 253 176 28 276 263 291 112 143 152 149 155 160 164 168 169 170
17 13 9 6 0 356 349 340 332 320 314 311 309 306 304 310 315 325 332 333 342 335 337 335 339 348 344 353 347 297 101 65 95 120 134 223 233 214 215 209 210 195 191 196 191 198 201 209 251 276 281 327 355 345 338 265 186 180 134 148 180 238 268 293 345 134 143 138 111 200 190 175 319 321 305 295 335 70 132 145 151 151 159 164 167 171 172 172
14 12 9 5 1 356 350 343 335 326 322 318 315 311 310 314 318 327 328 331 338 334 340 333 336 340 336 355 329 283 90 64 165 128 66 286 240 223 215 211 207 193 195 201 196 201 208 212 245 298 306 328 333 340 324 285 158 330 139 145 157 183 211 206 157 158 164 153 173 228 195 169 276 293 258 207 359 116 143 151 151 154 164 169 169 171 174 174
10 9 6 4 0 355 349 343 335 329 325 325 325 319 317 319 323 327 328 331 335 332 334 331 340 334 337 354 314 286 79 49 190 133 19 30 238 223 211 209 197 189 196 195 192 194 210 222 149 312 289 270 315 332 313 319 71 241 157 142 153 166 168 184 183 167 167 171 211 245 245 183 164 269 225 142 139 145 147 153 153 157 164 169 171 170 174 176
6 5 3 2 358 352 348 342 335 329 327 333 334 325 325 326 328 331 331 333 333 326 321 327 336 328 338 338 305 322 84 146 144 133 133 94 150 197 203 203 183 183 190 186 187 186 193 187 308 286 267 275 297 272 329 358 89 168 152 141 146 156 156 180 188 166 175 190 208 245 269 235 203 238 246 126 162 158 154 158 149 143 153 170 176 171 175 178
1 1 360 359 355 350 346 341 336 329 330 336 334 332 332 333 336 339 338 335 331 318 309 319 323 327 330 313 291 360 124 183 129 139 137 96 119 152 169 178 172 180 185 184 186 187 209 143 270 281 310 321 288 243 47 26 171 153 165 158 146 163 164 169 179 176 195 196 168 239 265 223 200 213 217 182 183 162 156 152 139 139 154 177 185 181 179 178
356 355 355 355 352 348 345 343 337 329 329 331 333 335 336 340 342 344 342 334 325 310 302 308 312 322 321 299 248 82 187 203 151 145 141 110 107 126 149 160 164 173 173 175 180 183 224 201 268 288 314 306 298 345 355 155 168 172 191 215 172 172 166 164 174 178 197 180 166 232 270 120 117 90 196 203 192 172 148 141 147 149 147 169 195 204 192 181
351 350 350 351 350 347 344 344 337 330 326 325 328 332 338 340 338 341 341 335 325 309 299 306 321 327 319 317 112 122 137 160 156 151 154 135 120 118 129 141 149 159 160 156 162 179 214 251 273 274 276 282 311 311 255 192 192 191 193 235 208 145 172 182 171 177 194 173 177 219 16 104 101 90 200 198 192 188 157 144 153 154 146 180 195 204 206 192
347 346 346 347 348 345 344 344 338 330 324 323 323 329 336 336 335 334 335 335 325 312 315 320 333 329 280 159 109 125 131 143 154 156 165 152 144 135 130 137 140 150 161 160 169 184 207 268 270 261 250 260 272 261 234 194 205 177 144 227 198 92 171 178 176 194 205 160 183 215 280 124 120 83 167 189 190 201 181 143 143 163 173 190 194 193 206 198
344 344 344 345 346 344 343 343 339 330 322 319 318 320 328 331 332 327 327 324 304 298 309 318 334 314 270 152 126 144 142 153 169 171 173 162 162 154 144 143 139 158 176 176 184 183 215 248 264 269 264 253 244 247 227 212 215 173 199 236 65 43 154 152 182 198 204 168 180 206 258 105 112 89 112 171 185 196 214 140 137 167 179 186 198 195 209 203
341 342 342 343 343 342 342 342 340 331 315 314 311 313 323 325 323 320 317 310 301 300 300 303 292 261 264 148 149 159 150 162 176 179 178 170 170 158 148 144 145 175 182 184 187 182 216 232 246 250 241 243 249 265 235 211 206 179 233 299 64 357 1 112 167 168 188 206 189 198 239 2 96 97 108 152 182 186 223 148 139 169 178 177 200 205 215 212
338 339 340 341 340 340 341 341 340 328 309 311 305 313 319 317 316 311 309 315 313 299 291 269 210 231 191 172 175 155 162 174 180 188 186 174 171 166 160 152 150 161 174 191 197 196 212 217 239 245 225 228 234 242 232 201 325 85 359 327 38 342 6 31 67 151 188 211 209 194 212 315 166 144 119 145 173 185 218 171 144 167 178 180 198 209 214 218
337 336 338 340 338 338 338 340 340 322 296 302 306 319 315 311 309 297 312 326 303 278 282 184 197 268 94 161 176 155 174 178 181 190 190 184 179 177 180 173 165 170 181 189 186 198 218 213 225 242 227 220 218 237 269 352 355 342 329 314 332 337 41 33 31 115 215 222 201 150 34 288 218 110 100 135 172 197 202 203 159 163 180 188 196 209 211 212
337 335 335 338 337 336 335 338 337 313 276 296 322 321 309 311 302 245 337 312 280 262 288 205 222 274 16 154 168 168 164 170 180 188 193 196 185 180 189 187 183 195 205 196 172 187 220 228 220 226 222 219 214 246 286 314 318 304 296 295 315 318 53 53 43 59 265 245 101 92 206 253 254 102 81 113 190 216 201 209 190 169 179 191 201 209 206 204
336 334 334 335 335 333 331 336 332 301 258 283 341 326 319 337 320 339 338 301 259 268 278 246 240 249 225 168 163 171 164 170 179 185 195 195 187 188 183 190 201 199 195 194 157 166 212 233 226 227 230 234 246 256 267 281 281 277 287 295 287 283 79 78 44 69 231 245 91 136 199 214 344 51 84 171 214 224 213 213 207 185 182 193 205 206 200 200
334 334 333 332 334 331 328 332 322 290 252 239 11 349 319 358 326 337 334 296 275 276 263 237 236 238 223 201 193 192 183 182 177 184 198 191 195 202 174 190 223 187 158 185 186 169 207 231 230 230 240 246 240 248 255 263 270 268 270 273 265 122 109 121 125 139 194 236 116 171 193 91 64 53 71 254 267 348 17 301 232 213 201 203 207 203 198 195
333 334 332 331 333 328 325 326 310 283 255 227 212 270 263 314 334 344 327 289 284 269 243 227 227 231 222 219 212 194 189 193 180 183 199 194 199 216 197 201 227 175 167 198 212 210 207 222 229 223 215 221 220 221 238 248 253 255 256 259 248 160 177 144 149 163 182 270 66 170 194 93 99 107 118 166 303 314 327 311 270 241 229 221 218 212 207 201
334 333 332 331 331 328 324 319 294 274 272 231 225 237 254 296 333 346 318 279 277 244 229 211 206 220 208 200 197 192 195 203 189 182 194 197 195 207 219 223 229 213 201 210 228 252 267 60 154 202 187 210 218 208 221 234 232 227 236 260 273 315 339 9 130 156 177 191 175 213 223 130 90 117 164 148 214 264 260 265 260 238 232 233 232 223 220 218
335 333 333 331 330 331 326 318 278 277 295 246 235 237 251 283 323 343 313 273 252 189 200 196 193 204 192 184 179 185 201 203 197 184 188 200 197 190 214 227 235 223 183 209 234 256 261 109 143 183 181 206 216 207 211 225 240 219 209 239 279 327 8 68 144 176 228 198 183 250 256 176 128 121 40 127 187 215 217 260 257 242 239 241 240 230 228 228
335 333 333 330 329 331 334 322 274 302 313 255 237 233 246 275 312 333 311 269 228 160 170 183 186 180 179 182 169 178 214 190 189 189 186 199 203 216 233 190 223 257 78 244 246 256 155 129 178 207 194 201 212 215 203 214 248 234 156 205 269 276 254 205 189 238 280 312 184 249 269 254 156 131 40 359 221 187 184 241 251 255 256 250 248 237 232 229
335 333 330 329 327 327 331 274 282 310 309 247 236 231 245 270 306 325 299 251 217 145 152 163 172 172 171 173 171 186 205 146 168 191 190 199 197 222 249 186 204 227 183 256 237 164 153 156 190 206 198 199 211 213 186 203 244 236 81 111 221 240 246 236 236 258 295 13 184 221 272 278 191 128 108 229 206 162 164 219 245 308 277 254 251 237 234 235
332 330 326 326 323 321 319 289 290 302 269 247 234 228 237 257 297 304 275 257 178 128 142 140 146 164 158 166 184 205 59 132 173 178 178 200 194 208 245 235 262 251 193 266 250 117 155 182 180 187 197 197 190 155 161 200 239 66 70 116 193 243 257 249 253 264 305 276 231 177 238 273 190 127 171 197 188 128 88 55 47 29 13 291 251 239 233 233
329 328 324 321 319 316 309 290 280 275 264 251 227 221 215 213 256 256 259 273 158 147 138 136 149 166 159 168 193 212 220 186 206 139 164 198 196 208 262 265 275 281 240 261 280 101 123 155 182 210 222 181 88 69 130 210 240 87 102 166 151 216 238 243 258 261 250 266 261 144 200 279 355 127 167 183 178 108 95 74 53 42 39 43 324 252 232 220
327 325 320 318 319 314 306 295 269 251 250 237 218 199 181 191 224 238 237 252 170 140 125 152 158 165 174 183 194 204 212 203 142 138 165 191 194 211 268 285 263 270 248 240 254 250 124 131 237 251 282 51 82 81 89 191 123 121 164 185 176 203 226 243 263 282 257 251 242 117 237 277 287 135 145 114 87 68 80 84 61 43 39 42 39 14 253 210
326 322 317 315 315 310 308 300 258 229 203 209 195 173 182 199 233 250 221 154 226 149 146 171 164 166 188 202 202 189 202 205 169 168 177 177 191 206 233 236 228 242 240 222 217 202 184 185 183 194 217 102 130 124 98 132 156 181 208 212 207 202 206 229 218 230 255 249 113 106 255 261 265 339 91 99 90 69 61 66 51 33 37 43 38 29 15 222
327 320 314 311 309 303 296 274 249 230 197 186 178 180 200 207 221 242 203 130 215 175 163 166 164 183 196 212 219 187 196 205 189 200 206 190 196 203 213 222 213 220 226 206 184 184 188 178 142 146 175 203 201 161 146 171 189 215 223 221 235 222 206 233 219 215 248 249 100 125 256 251 261 53 71 103 105 89 71 58 42 32 35 44 42 36 39 30
328 321 312 308 306 301 288 269 251 229 197 177 179 190 213 225 218 231 217 200 114 92 48 112 155 193 202 216 215 186 196 203 186 204 214 206 213 205 207 228 257 265 255 196 195 195 178 156 161 174 169 197 227 220 181 173 185 213 225 223 240 249 241 243 232 234 253 146 115 121 256 238 171 84 59 94 99 86 84 77 53 44 37 43 51 46 52 57
332 324 315 310 308 302 290 276 245 215 190 176 186 198 214 226 218 207 227 216 117 64 214 135 198 228 223 229 210 180 205 205 182 198 203 203 222 215 206 212 229 254 264 237 240 236 231 171 167 182 149 170 215 264 318 50 166 198 236 245 249 259 262 264 259 269 290 154 134 150 244 276 117 124 97 105 111 106 111 108 89 71 49 44 60 60 57 62
335 328 318 309 304 296 284 270 239 204 184 179 198 209 209 223 221 214 229 209 177 225 205 194 255 244 219 220 210 196 230 206 182 199 207 205 216 216 215 203 200 222 242 234 199 216 258 234 125 124 93 163 201 248 297 264 186 166 215 239 254 287 279 287 301 317 323 288 177 174 217 35 70 160 144 137 152 150 143 141 136 108 75 53 62 64 53 52
340 336 322 312 303 294 276 257 237 197 185 188 211 215 216 230 240 215 190 41 328 262 250 220 226 239 219 201 198 197 220 210 187 201 210 214 222 220 222 207 190 208 228 239 194 190 243 164 116 142 149 165 221 164 215 263 247 162 208 216 63 4 288 271 255 268 279 269 215 190 227 108 135 182 158 164 179 166 168 161 137 113 96 93 68 59 47 37
345 346 332 322 311 300 274 240 214 189 189 205 224 219 226 234 309 20 52 17 315 294 274 238 203 232 231 210 200 191 188 192 195 209 208 203 214 219 221 216 196 212 225 245 250 223 256 166 128 170 166 134 169 197 194 265 290 248 217 132 98 42 266 266 253 211 233 251 166 108 290 147 165 187 155 177 194 179 179 168 145 145 137 115 79 62 43 32
347 348 332 334 331 332 278 198 178 179 191 218 230 227 247 229 157 3 14 337 297 259 259 246 204 236 241 232 206 178 178 189 188 206 214 197 191 204 214 208 188 209 225 239 239 183 260 241 136 166 169 133 160 214 191 180 272 297 95 133 204 244 210 223 262 251 249 269 176 120 270 270 310 86 152 185 203 186 178 175 177 170 145 108 80 68 43 37
345 339 285 347 4 41 106 148 156 179 198 222 229 221 231 221 179 97 304 297 265 248 257 254 237 237 239 254 229 161 179 202 192 199 215 204 182 178 204 208 181 192 208 219 224 171 234 260 156 151 154 150 180 220 220 179 169 195 154 173 232 289 281 249 283 291 293 298 306 161 200 156 49 55 132 172 192 192 183 178 185 168 135 99 69 58 38 38
340 313 213 27 17 98 122 141 158 191 207 222 240 221 174 218 205 173 222 272 257 251 265 269 247 239 240 256 263 186 195 217 211 212 210 192 190 180 190 204 185 173 187 201 216 199 191 252 230 146 154 195 198 208 260 263 169 194 203 197 196 190 245 245 229 285 302 305 327 309 273 101 76 51 92 145 170 183 184 178 176 161 133 98 71 48 30 30
334 288 147 56 266 137 133 162 186 208 219 226 251 248 187 237 244 222 217 246 261 255 266 280 266 262 272 259 247 216 212 221 214 223 219 193 211 214 184 193 184 160 169 192 206 207 201 232 244 176 177 207 152 79 336 333 333 263 239 218 203 192 218 234 207 196 279 300 333 318 315 83 91 98 101 124 154 168 175 174 166 154 133 100 79 50 29 24
334 295 354 343 228 156 163 213 204 218 237 233 255 242 201 246 254 247 235 231 244 241 240 262 261 259 266 259 255 261 247 237 216 219 227 210 220 220 167 176 182 171 176 190 177 158 203 242 239 242 223 79 65 58 346 319 318 288 270 254 233 214 232 258 259 182 218 264 330 297 285 89 96 115 119 117 138 150 158 165 162 150 132 110 85 55 31 18
332 317 304 293 216 178 219 240 194 213 235 216 195 221 194 218 235 236 237 231 235 236 229 244 252 247 249 248 254 256 244 243 231 223 230 223 218 168 139 168 183 186 194 191 152 139 164 236 231 242 121 112 101 117 172 220 250 249 239 233 244 240 244 280 313 319 252 228 224 269 263 111 106 123 123 114 129 143 146 153 159 151 140 148 122 49 26 10
318 304 282 294 241 194 231 255 219 221 216 194 221 217 203 226 240 237 240 230 227 238 239 244 245 239 241 248 251 250 238 236 232 224 232 234 197 99 143 179 189 199 206 200 164 169 186 214 216 226 208 186 183 182 184 192 217 240 233 206 226 235 221 246 272 259 258 240 238 281 293 102 116 146 151 148 160 167 161 159 164 163 176 199 124 21 9 4
317 282 225 272 240 207 239 292 292 263 222 207 228 223 210 218 223 232 253 253 245 256 260 254 247 241 245 250 248 246 245 248 238 225 238 234 172 113 168 185 194 209 212 69 152 172 185 209 209 237 242 220 224 230 223 212 212 232 231 198 212 218 211 219 228 234 239 170 182 265 303 91 130 164 175 173 180 187 174 169 179 190 203 226 332 355 355 357
316 286 213 198 185 213 238 286 281 270 263 237 233 225 226 226 207 211 240 251 239 248 262 261 258 253 244 241 245 241 236 240 239 235 248 232 179 124 167 178 191 212 162 129 166 173 185 213 212 250 272 280 313 350 346 305 257 233 219 205 210 213 212 224 245 253 235 148 205 232 325 42 152 162 180 191 189 198 190 181 189 192 189 202 302 332 336 337
303 317 346 326 242 222 210 192 245 259 279 267 246 224 230 236 220 196 212 226 225 242 258 257 251 249 241 235 243 244 235 233 232 234 248 240 177 107 149 178 184 164 148 165 176 178 205 207 201 233 257 285 327 358 338 277 266 252 227 208 204 203 208 226 242 251 100 237 250 137 131 270 275 130 165 197 194 204 196 184 188 180 170 197 300 309 317 326
299 334 341 318 296 248 217 182 304 283 266 250 254 254 240 238 235 215 205 208 218 232 251 247 234 239 249 254 257 251 237 230 226 226 235 235 193 143 157 181 180 164 171 180 178 194 233 210 186 210 221 206 28 349 244 252 255 257 241 216 203 200 208 225 235 225 212 254 287 98 143 251 316 84 117 132 175 198 178 165 163 146 157 238 294 297 307 326
315 315 308 296 285 289 303 313 307 280 258 241 241 244 242 242 239 236 233 232 226 215 230 255 246 240 257 264 258 250 245 242 231 221 221 225 213 186 173 178 175 175 187 188 176 208 253 202 171 203 200 160 156 179 210 227 227 225 227 226 218 213 216 229 235 225 230 253 268 114 219 259 318 97 111 101 105 135 141 146 156 161 188 245 282 288 305 323
319 306 312 306 282 276 283 277 269 265 248 225 234 234 236 244 244 239 244 250 244 211 205 253 282 296 286 270 244 240 259 311 287 254 252 238 214 199 191 184 173 179 193 192 174 198 236 196 171 204 209 181 179 191 201 216 225 220 208 208 227 227 222 229 234 217 220 237 221 210 253 256 126 107 117 122 118 133 153 165 174 189 209 234 265 284 307 316
289 280 289 299 285 265 261 256 251 261 247 224 228 228 225 234 246 275 259 247 254 254 241 293 315 312 285 250 227 238 310 329 298 286 294 281 256 255 248 199 179 178 187 191 182 187 209 189 166 205 232 203 181 202 211 213 228 233 222 210 216 224 225 225 222 210 219 227 211 223 255 251 127 119 126 140 153 168 178 181 189 202 210 226 256 281 304 310
289 278 276 284 280 253 250 249 232 243 255 244 238 244 243 242 264 299 266 237 238 245 272 335 325 309 266 214 193 329 328 310 292 285 282 278 276 281 283 239 200 189 181 182 185 186 194 188 178 209 239 207 174 204 221 216 227 234 225 213 214 220 230 230 220 215 222 228 227 237 257 103 124 143 148 158 180 195 192 188 197 205 204 216 246 280 295 303